Bismarck, ND

11:10 AM CDT on October 22, 2017 (GMT -0500)
Bismarck Municipal

Weather History for KBIS - December, 2014

Change the Weather History Date:

Sunday, December 21, 2014

  Actual Average Record
Temperature  
Mean Temperature 25 °F 14 °F  
Max Temperature 39 °F 25 °F 52 °F (1900)
Min Temperature 11 °F 4 °F -34 °F (1916)
Degree Days  
Heating Degree Days 40 51  
Month to date heating degree days 901 999  
Since 1 July heating degree days 2973 2985  
Cooling Degree Days 0 0  
Month to date cooling degree days 0 0  
Year to date cooling degree days 457 520  
Moisture  
Dew Point 24 °F    
Average Humidity 85    
Maximum Humidity 100    
Minimum Humidity 70    
Precipitation  
Precipitation 0.00 in 0.02 in 0.40 in (1918)
Month to date precipitation T 0.32  
Year to date precipitation 13.81 17.68  
Snow  
Snow 0.00 in 0.30 in 4.00 in (1918)
Month to date snowfall 0.1 5.9  
Since 1 July snowfall 8.0 17.1  
Snow Depth T in    
Sea Level Pressure  
Sea Level Pressure 29.59 in    
Wind  
Wind Speed 7 mph (ESE)    
Max Wind Speed 15 mph    
Max Gust Speed 16 mph    
Visibility 8 miles    
Events      
T = Trace of Precipitation, MM = Missing Value Source: NWS Daily Summary

Daily Weather History Graph

Daily Weather History Graph

Search for Another Location

Airport or City:

Trip Planner

Search our weather history database for the weather conditions in past years. The results will help you decide how hot, cold, wet, or windy it might be!

Date:

Astronomy

Dec. 21, 2014 Rise Set
Actual Time 8:25 AM CST 4:57 PM CST
Civil Twilight 7:49 AM CST 5:32 PM CST
Nautical Twilight 7:11 AM CST 6:11 PM CST
Astronomical Twilight 6:34 AM CST 6:48 PM CST
Moon 7:38 AM CST (12/21) 5:10 PM CST (12/21)
Length of Visible Light 9h 43m
Length of Day
8h 32m
Waning Crescent, 0% of the Moon is Illuminated
Dec 21
Waning Crescent
Dec 21
New
Dec 28
First Quarter
Jan 4
Full
Jan 13
Last Quarter

Hourly Weather History & Observations

Time (CST) Temp. Windchill Dew Point Humidity Pressure Visibility Wind Dir Wind Speed Gust Speed Precip Events Conditions
12:52 AM 18.0 °F - 17.1 °F 96% 29.85 in 7.0 mi Calm Calm - N/A   Clear
1:52 AM 15.1 °F 9.4 °F 12.9 °F 91% 29.83 in 10.0 mi NE 3.5 mph - N/A   Clear
2:52 AM 12.9 °F 5.2 °F 10.9 °F 92% 29.81 in 10.0 mi ENE 4.6 mph - N/A   Clear
3:52 AM 12.0 °F 4.1 °F 9.0 °F 88% 29.78 in 10.0 mi East 4.6 mph - N/A   Clear
4:52 AM 12.9 °F 3.8 °F 10.9 °F 92% 29.76 in 10.0 mi NE 5.8 mph - N/A   Clear
5:52 AM 19.0 °F - 17.1 °F 92% 29.74 in 10.0 mi Calm Calm - N/A   Overcast
6:52 AM 19.0 °F 12.3 °F 17.1 °F 92% 29.71 in 10.0 mi ENE 4.6 mph - N/A   Overcast
7:52 AM 17.1 °F 8.7 °F 15.1 °F 92% 29.69 in 10.0 mi East 5.8 mph - N/A   Scattered Clouds
8:52 AM 18.0 °F 9.8 °F 16.0 °F 92% 29.67 in 10.0 mi ESE 5.8 mph - N/A   Clear
9:52 AM 25.0 °F 19.3 °F 23.0 °F 92% 29.64 in 10.0 mi SE 4.6 mph - N/A   Clear
10:52 AM 28.9 °F 21.9 °F 27.0 °F 92% 29.61 in 10.0 mi ESE 6.9 mph - N/A   Clear
11:52 AM 34.0 °F 26.6 °F 28.9 °F 82% 29.57 in 10.0 mi SE 9.2 mph - N/A   Clear
12:52 PM 36.0 °F 26.7 °F 28.0 °F 73% 29.54 in 10.0 mi SSE 15.0 mph - N/A   Clear
1:52 PM 37.9 °F 32.1 °F 28.0 °F 68% 29.52 in 10.0 mi SE 8.1 mph - N/A   Clear
2:52 PM 37.4 °F 31.4 °F 28.4 °F 70% 29.43 in 10.0 mi SE 8.1 mph - N/A   Clear
3:52 PM 37.0 °F 31.0 °F 28.0 °F 70% 29.50 in 10.0 mi SE 8.1 mph - N/A   Clear
4:52 PM 28.9 °F 21.9 °F 25.0 °F 85% 29.51 in 10.0 mi ESE 6.9 mph - N/A   Clear
5:52 PM 28.9 °F 19.8 °F 27.0 °F 92% 29.51 in 10.0 mi SSE 10.4 mph - N/A   Clear
6:15 PM 28.9 °F 19.2 °F 28.0 °F 96% 29.44 in 10.0 mi SE 11.5 mph - N/A   Scattered Clouds
6:24 PM 28.9 °F 20.4 °F 28.0 °F 96% 29.44 in 8.0 mi SE 9.2 mph - N/A   Mostly Cloudy
6:34 PM 30.0 °F 23.2 °F 28.9 °F 96% 29.45 in 8.0 mi SSE 6.9 mph - N/A   Overcast
6:52 PM 30.0 °F 20.5 °F 28.9 °F 96% 29.52 in 7.0 mi SSE 11.5 mph - N/A   Overcast
7:52 PM 30.0 °F 20.5 °F 28.9 °F 96% 29.53 in 6.0 mi SSE 11.5 mph - N/A   Overcast
8:52 PM 28.9 °F 21.9 °F 28.9 °F 100% 29.53 in 2.5 mi SSE 6.9 mph - N/A   Overcast
9:52 PM 28.9 °F 19.8 °F 28.9 °F 100% 29.52 in 4.0 mi SSE 10.4 mph - N/A   Overcast
10:33 PM 28.9 °F 21.1 °F 28.0 °F 96% 29.45 in 2.0 mi SE 8.1 mph - N/A   Overcast
10:52 PM 28.9 °F 21.1 °F 28.0 °F 96% 29.51 in 3.0 mi SSE 8.1 mph - N/A   Overcast
11:52 PM 28.0 °F 20.8 °F 28.0 °F 100% 29.51 in 5.0 mi SE 6.9 mph - N/A   Overcast